• In Belarus
  • List of Countries
  • For 7 days
  • Water Temperature
  • Weather Map
  • Weather Widgets
  • user-avatar
    Login

    Hourly Weather Cholargos

    Today, 23 October, Wednesday

    Time Temperature Precipitation Wind Pressure Humidity
    00:00 +17°C° 0 mm 7 mps 744 mmHg 74%
    01:00 +17°C° 0 mm 7 mps 744 mmHg 76%
    02:00 +17°C° 0 mm 7 mps 743 mmHg 77%
    03:00 +17°C° 0 mm 7 mps 743 mmHg 77%
    04:00 +17°C° 0 mm 7 mps 744 mmHg 77%
    05:00 +17°C° 0 mm 7 mps 744 mmHg 77%
    06:00 +17°C° 0 mm 7 mps 744 mmHg 75%
    07:00 +17°C° 0 mm 7 mps 744 mmHg 73%
    08:00 +17°C° 0 mm 7 mps 744 mmHg 70%
    09:00 +20°C° 0 mm 8 mps 744 mmHg 64%
    10:00 +21°C° 0 mm 8 mps 744 mmHg 57%
    11:00 +22°C° 0 mm 8 mps 744 mmHg 51%
    12:00 +22°C° 0 mm 8 mps 744 mmHg 49%
    13:00 +23°C° 0 mm 8 mps 744 mmHg 46%
    14:00 +23°C° 0 mm 8 mps 743 mmHg 44%
    15:00 +22°C° 0 mm 8 mps 743 mmHg 46%
    16:00 +22°C° 0 mm 7 mps 743 mmHg 47%
    17:00 +21°C° 0 mm 7 mps 743 mmHg 48%
    18:00 +20°C° 0 mm 6 mps 743 mmHg 52%
    19:00 +19°C° 0 mm 6 mps 743 mmHg 55%
    20:00 +17°C° 0 mm 5 mps 743 mmHg 59%
    21:00 +17°C° 0 mm 5 mps 743 mmHg 58%
    22:00 +17°C° 0 mm 5 mps 743 mmHg 58%
    23:00 +17°C° 0 mm 5 mps 743 mmHg 58%

    Tomorrow, 24 October, Thursday

    Time Temperature Precipitation Wind Pressure Humidity
    00:00 +16°C° 0 mm 5 mps 743 mmHg 59%
    01:00 +16°C° 0 mm 5 mps 743 mmHg 59%
    02:00 +16°C° 0 mm 5 mps 743 mmHg 60%
    03:00 +16°C° 0 mm 5 mps 743 mmHg 60%
    04:00 +16°C° 0 mm 5 mps 742 mmHg 60%
    05:00 +16°C° 0 mm 5 mps 742 mmHg 61%
    06:00 +16°C° 0 mm 5 mps 742 mmHg 60%
    07:00 +17°C° 0 mm 5 mps 742 mmHg 60%
    08:00 +17°C° 0 mm 5 mps 743 mmHg 59%
    09:00 +20°C° 0 mm 5 mps 743 mmHg 52%
    10:00 +21°C° 0 mm 6 mps 743 mmHg 45%
    11:00 +23°C° 0 mm 6 mps 743 mmHg 38%
    12:00 +23°C° 0 mm 6 mps 743 mmHg 36%
    13:00 +24°C° 0 mm 6 mps 742 mmHg 34%
    14:00 +24°C° 0 mm 6 mps 742 mmHg 33%
    15:00 +23°C° 0 mm 6 mps 742 mmHg 34%
    16:00 +23°C° 0 mm 5 mps 741 mmHg 36%
    17:00 +22°C° 0 mm 5 mps 741 mmHg 37%
    18:00 +21°C° 0 mm 5 mps 741 mmHg 41%
    19:00 +20°C° 0 mm 4 mps 741 mmHg 45%
    20:00 +19°C° 0 mm 4 mps 742 mmHg 49%
    21:00 +18°C° 0 mm 4 mps 742 mmHg 50%
    22:00 +18°C° 0 mm 3 mps 742 mmHg 51%
    23:00 +17°C° 0 mm 3 mps 742 mmHg 52%

    Day after tomorrow, 25 October, Friday

    Time Temperature Precipitation Wind Pressure Humidity
    00:00 +17°C° 0 mm 3 mps 742 mmHg 52%
    01:00 +17°C° 0 mm 3 mps 742 mmHg 53%
    02:00 +17°C° 0 mm 3 mps 741 mmHg 53%
    03:00 +16°C° 0 mm 3 mps 741 mmHg 54%
    04:00 +16°C° 0 mm 3 mps 741 mmHg 55%
    05:00 +16°C° 0 mm 3 mps 741 mmHg 56%
    06:00 +17°C° 0 mm 3 mps 741 mmHg 56%
    07:00 +17°C° 0 mm 3 mps 742 mmHg 55%
    08:00 +17°C° 0 mm 3 mps 742 mmHg 54%
    09:00 +19°C° 0 mm 3 mps 742 mmHg 49%
    10:00 +21°C° 0 mm 3 mps 743 mmHg 44%
    11:00 +24°C° 0 mm 3 mps 743 mmHg 38%
    12:00 +24°C° 0 mm 3 mps 743 mmHg 37%
    13:00 +25°C° 0 mm 3 mps 743 mmHg 36%
    14:00 +26°C° 0 mm 3 mps 742 mmHg 34%
    15:00 +25°C° 0 mm 3 mps 742 mmHg 37%
    16:00 +24°C° 0 mm 3 mps 742 mmHg 40%
    17:00 +24°C° 0 mm 3 mps 742 mmHg 43%
    18:00 +22°C° 0 mm 3 mps 742 mmHg 47%
    19:00 +21°C° 0 mm 3 mps 743 mmHg 51%
    20:00 +19°C° 0 mm 3 mps 743 mmHg 55%
    21:00 +19°C° 0 mm 3 mps 743 mmHg 55%
    22:00 +19°C° 0 mm 3 mps 743 mmHg 54%
    23:00 +18°C° 0 mm 3 mps 743 mmHg 54%

    26 October, Saturday

    Time Temperature Precipitation Wind Pressure Humidity
    00:00 +18°C° 0 mm 3 mps 743 mmHg 53%
    01:00 +18°C° 0 mm 3 mps 743 mmHg 52%
    02:00 +18°C° 0 mm 4 mps 743 mmHg 52%
    03:00 +17°C° 0 mm 4 mps 743 mmHg 54%
    04:00 +17°C° 0 mm 4 mps 743 mmHg 57%
    05:00 +17°C° 0 mm 4 mps 743 mmHg 59%
    06:00 +17°C° 0 mm 4 mps 743 mmHg 59%
    07:00 +18°C° 0 mm 4 mps 744 mmHg 58%
    08:00 +18°C° 0 mm 4 mps 744 mmHg 58%
    09:00 +20°C° 0 mm 5 mps 744 mmHg 52%
    10:00 +21°C° 0 mm 5 mps 745 mmHg 47%
    11:00 +23°C° 0 mm 5 mps 745 mmHg 42%
    12:00 +25°C° 0 mm 5 mps 745 mmHg 40%
    13:00 +24°C° 0 mm 6 mps 744 mmHg 38%
    14:00 +26°C° 0 mm 6 mps 744 mmHg 36%
    15:00 +24°C° 0 mm 6 mps 744 mmHg 38%
    16:00 +23°C° 0 mm 6 mps 744 mmHg 40%
    17:00 +23°C° 0 mm 5 mps 744 mmHg 41%
    18:00 +21°C° 0 mm 5 mps 744 mmHg 46%
    19:00 +20°C° 0 mm 5 mps 744 mmHg 51%
    20:00 +19°C° 0 mm 4 mps 744 mmHg 55%
    21:00 +18°C° 0 mm 4 mps 744 mmHg 56%
    22:00 +18°C° 0 mm 4 mps 744 mmHg 56%
    23:00 +18°C° 0 mm 4 mps 744 mmHg 57%

    27 October, Sunday

    Time Temperature Precipitation Wind Pressure Humidity
    00:00 +17°C° 0 mm 4 mps 744 mmHg 57%
    01:00 +17°C° 0 mm 4 mps 743 mmHg 56%
    02:00 +17°C° 0 mm 4 mps 743 mmHg 56%
    03:00 +17°C° 0 mm 4 mps 743 mmHg 57%
    04:00 +17°C° 0 mm 4 mps 743 mmHg 58%
    05:00 +15°C° 0 mm 4 mps 743 mmHg 59%
    06:00 +17°C° 0 mm 4 mps 743 mmHg 58%
    07:00 +17°C° 0 mm 4 mps 743 mmHg 57%
    08:00 +18°C° 0 mm 4 mps 743 mmHg 56%
    09:00 +19°C° 0 mm 4 mps 743 mmHg 49%
    10:00 +21°C° 0 mm 5 mps 743 mmHg 43%
    11:00 +23°C° 0 mm 5 mps 743 mmHg 37%
    12:00 +25°C° 0 mm 5 mps 743 mmHg 35%
    13:00 +25°C° 0 mm 5 mps 743 mmHg 33%
    14:00 +26°C° 0 mm 5 mps 742 mmHg 31%
    15:00 +25°C° 0 mm 5 mps 742 mmHg 33%
    16:00 +25°C° 0 mm 4 mps 742 mmHg 35%
    17:00 +23°C° 0 mm 4 mps 742 mmHg 37%
    18:00 +22°C° 0 mm 3 mps 742 mmHg 40%
    19:00 +21°C° 0 mm 3 mps 742 mmHg 43%
    20:00 +20°C° 0 mm 3 mps 742 mmHg 46%
    21:00 +19°C° 0 mm 3 mps 742 mmHg 45%
    22:00 +19°C° 0 mm 3 mps 742 mmHg 44%
    23:00 +19°C° 0 mm 3 mps 742 mmHg 43%

    28 October, Monday

    Time Temperature Precipitation Wind Pressure Humidity
    00:00 +19°C° 0 mm 3 mps 741 mmHg 43%
    01:00 +18°C° 0 mm 3 mps 741 mmHg 42%
    02:00 +18°C° 0 mm 3 mps 741 mmHg 42%
    03:00 +18°C° 0 mm 3 mps 741 mmHg 43%
    04:00 +18°C° 0 mm 3 mps 741 mmHg 43%
    05:00 +17°C° 0 mm 3 mps 741 mmHg 44%
    06:00 +18°C° 0 mm 3 mps 741 mmHg 43%
    07:00 +18°C° 0 mm 3 mps 741 mmHg 43%
    08:00 +19°C° 0 mm 3 mps 741 mmHg 42%
    09:00 +21°C° 0 mm 3 mps 741 mmHg 37%
    10:00 +24°C° 0 mm 3 mps 742 mmHg 33%
    11:00 +25°C° 0 mm 3 mps 742 mmHg 28%
    12:00 +26°C° 0 mm 3 mps 742 mmHg 27%
    13:00 +27°C° 0 mm 3 mps 742 mmHg 26%
    14:00 +27°C° 0 mm 3 mps 741 mmHg 25%
    15:00 +26°C° 0 mm 2 mps 741 mmHg 28%
    16:00 +25°C° 0 mm 2 mps 741 mmHg 32%
    17:00 +25°C° 0 mm 2 mps 740 mmHg 35%
    18:00 +23°C° 0 mm 1 mps 740 mmHg 38%
    19:00 +22°C° 0 mm 1 mps 741 mmHg 41%
    20:00 +21°C° 0 mm 1 mps 741 mmHg 44%
    21:00 +21°C° 0 mm 1 mps 741 mmHg 44%
    22:00 +20°C° 0 mm 1 mps 741 mmHg 45%
    23:00 +20°C° 0 mm 1 mps 741 mmHg 45%

    29 October, Tuesday

    Time Temperature Precipitation Wind Pressure Humidity
    00:00 +20°C° 0 mm 1 mps 741 mmHg 44%
    01:00 +19°C° 0 mm 1 mps 741 mmHg 43%
    02:00 +19°C° 0 mm 1 mps 741 mmHg 42%
    03:00 +19°C° 0 mm 1 mps 741 mmHg 42%
    04:00 +18°C° 0 mm 1 mps 740 mmHg 41%
    05:00 +18°C° 0 mm 1 mps 740 mmHg 40%
    06:00 +19°C° 0 mm 1 mps 741 mmHg 39%
    07:00 +19°C° 0 mm 1 mps 741 mmHg 38%
    08:00 +19°C° 0 mm 2 mps 741 mmHg 37%
    09:00 +22°C° 0 mm 1 mps 741 mmHg 33%
    10:00 +23°C° 0 mm 1 mps 742 mmHg 30%
    11:00 +25°C° 0 mm 1 mps 742 mmHg 26%
    12:00 +25°C° 0 mm 2 mps 742 mmHg 26%
    13:00 +26°C° 0 mm 2 mps 742 mmHg 26%
    14:00 +26°C° 0 mm 2 mps 741 mmHg 25%
    15:00 +25°C° 0 mm 2 mps 741 mmHg 29%
    16:00 +25°C° 0 mm 2 mps 741 mmHg 32%
    17:00 +24°C° 0 mm 2 mps 741 mmHg 35%
    18:00 +23°C° 0 mm 1 mps 741 mmHg 40%
    19:00 +22°C° 0 mm 1 mps 741 mmHg 44%
    20:00 +21°C° 0 mm 1 mps 741 mmHg 49%
    21:00 +20°C° 0 mm 1 mps 741 mmHg 49%
    22:00 +20°C° 0 mm 1 mps 741 mmHg 49%
    23:00 +20°C° 0 mm 1 mps 741 mmHg 50%
    Show more